RYR9SV GCFV-LEMD

Flight info

Callsign RYR9SV
Flight time N/A
Altitude 36000
Route VASTO UN858 AKUDA DCT PESAS N858 PARKA Z165 SOTUK
Aircraft B738/M-SDE3FGILRWY/SB1

Departure

Time 2026-05-05 17:22
Airport Fuerteventura Airport (GCFV)

Arrival

Time N/A
Airport Adolfo Suárez Madrid–Barajas Airport (LEMD)
Time Latitude Longitude Altitude Speed Heading
2026-05-05 16:46 28.45125 -13.86842 34 ft 0 kts 267°
2026-05-05 17:06 28.45125 -13.86830 34 ft 2 kts 267°
2026-05-05 17:07 28.45126 -13.86813 35 ft 2 kts 267°
2026-05-05 17:07 28.45127 -13.86796 35 ft 2 kts 267°
2026-05-05 17:07 28.45127 -13.86779 36 ft 2 kts 267°
2026-05-05 17:07 28.45128 -13.86762 35 ft 1 kts 267°
2026-05-05 17:08 28.45129 -13.86752 34 ft 1 kts 251°
2026-05-05 17:08 28.45138 -13.86741 34 ft 1 kts 195°
2026-05-05 17:08 28.45145 -13.86740 33 ft 1 kts 175°
2026-05-05 17:08 28.45149 -13.86740 33 ft 0 kts 181°
2026-05-05 17:11 28.45122 -13.86734 33 ft 7 kts 151°
2026-05-05 17:11 28.45099 -13.86683 33 ft 8 kts 98°
2026-05-05 17:12 28.45084 -13.86590 33 ft 12 kts 134°
2026-05-05 17:12 28.45003 -13.86576 33 ft 11 kts 181°
2026-05-05 17:12 28.44910 -13.86579 33 ft 15 kts 182°
2026-05-05 17:12 28.44792 -13.86584 33 ft 16 kts 182°
2026-05-05 17:13 28.44677 -13.86589 33 ft 16 kts 181°
2026-05-05 17:13 28.44566 -13.86592 33 ft 17 kts 181°
2026-05-05 17:13 28.44414 -13.86596 33 ft 23 kts 181°
2026-05-05 17:13 28.44255 -13.86599 33 ft 22 kts 180°
2026-05-05 17:14 28.44101 -13.86606 33 ft 21 kts 182°
2026-05-05 17:14 28.43954 -13.86611 33 ft 21 kts 181°
2026-05-05 17:14 28.43792 -13.86614 33 ft 23 kts 182°
2026-05-05 17:14 28.43633 -13.86622 33 ft 22 kts 182°
2026-05-05 17:15 28.43478 -13.86626 33 ft 21 kts 181°
2026-05-05 17:15 28.43343 -13.86614 33 ft 17 kts 163°
2026-05-05 17:15 28.43303 -13.86506 33 ft 15 kts 89°
2026-05-05 17:15 28.43360 -13.86443 33 ft 9 kts
2026-05-05 17:16 28.43366 -13.86443 33 ft 0 kts
2026-05-05 17:20 28.43389 -13.86442 33 ft 14 kts
2026-05-05 17:21 28.43714 -13.86430 33 ft 80 kts
2026-05-05 17:21 28.44480 -13.86406 33 ft 137 kts
2026-05-05 17:21 28.45581 -13.86378 197 ft 168 kts
2026-05-05 17:22 28.47805 -13.85880 1402 ft 174 kts 46°
2026-05-05 17:22 28.48346 -13.84645 1920 ft 181 kts 70°
2026-05-05 17:22 28.48950 -13.83374 2196 ft 195 kts 40°
2026-05-05 17:22 28.50244 -13.82766 2486 ft 212 kts
2026-05-05 17:23 28.51742 -13.82493 2860 ft 225 kts 15°
2026-05-05 17:23 28.53244 -13.81876 3354 ft 232 kts 24°
2026-05-05 17:23 28.54724 -13.81067 3858 ft 240 kts 26°
2026-05-05 17:23 28.56239 -13.80213 4420 ft 247 kts 25°
2026-05-05 17:24 28.57825 -13.79338 4779 ft 261 kts 24°
2026-05-05 17:24 28.59497 -13.78433 5275 ft 270 kts 24°
2026-05-05 17:24 28.61222 -13.77506 5894 ft 275 kts 23°
2026-05-05 17:24 28.62958 -13.76574 6486 ft 280 kts 22°
2026-05-05 17:25 28.64798 -13.75881 7009 ft 283 kts
2026-05-05 17:25 28.66105 -13.75743 7442 ft 283 kts 359°
2026-05-05 17:25 28.68765 -13.75706 8247 ft 289 kts 357°
2026-05-05 17:25 28.70800 -13.75629 8856 ft 295 kts 359°
2026-05-05 17:26 28.72840 -13.75474 9482 ft 300 kts 360°
2026-05-05 17:26 28.74940 -13.75271 10142 ft 303 kts 360°
2026-05-05 17:26 28.77083 -13.75051 10531 ft 318 kts
2026-05-05 17:26 28.79357 -13.74821 10943 ft 333 kts 360°
2026-05-05 17:27 28.81727 -13.74584 11246 ft 349 kts 360°
2026-05-05 17:27 28.84196 -13.74338 11566 ft 364 kts 360°
2026-05-05 17:27 28.86760 -13.74082 12055 ft 374 kts 360°
2026-05-05 17:27 28.89364 -13.73816 12674 ft 379 kts 359°
2026-05-05 17:28 28.91976 -13.73549 13365 ft 381 kts 359°
2026-05-05 17:28 28.94640 -13.73278 13970 ft 387 kts 359°
2026-05-05 17:28 28.97374 -13.73002 14634 ft 393 kts 358°
2026-05-05 17:28 29.00102 -13.72728 15346 ft 396 kts 358°
2026-05-05 17:29 29.02855 -13.72450 16011 ft 400 kts 358°
2026-05-05 17:29 29.05619 -13.72173 16683 ft 404 kts 358°
2026-05-05 17:29 29.08456 -13.71886 17327 ft 408 kts 357°
2026-05-05 17:29 29.11313 -13.71599 17961 ft 413 kts 357°
2026-05-05 17:30 29.14198 -13.71308 18555 ft 418 kts 357°
2026-05-05 17:30 29.17112 -13.71014 19188 ft 421 kts 357°
2026-05-05 17:30 29.20042 -13.70718 19758 ft 425 kts 357°
2026-05-05 17:30 29.22973 -13.70424 20321 ft 429 kts 357°
2026-05-05 17:31 29.25967 -13.70121 20861 ft 434 kts 357°
2026-05-05 17:31 29.29013 -13.69813 21436 ft 437 kts 357°
2026-05-05 17:31 29.32052 -13.69506 21881 ft 443 kts 357°
2026-05-05 17:31 29.35141 -13.69195 22411 ft 446 kts 357°
2026-05-05 17:32 29.38232 -13.68880 22942 ft 449 kts 357°
2026-05-05 17:32 29.41349 -13.68565 23363 ft 454 kts 357°
2026-05-05 17:32 29.44519 -13.68242 23976 ft 455 kts 357°
2026-05-05 17:32 29.47699 -13.67917 24475 ft 458 kts 357°
2026-05-05 17:33 29.50898 -13.67593 24892 ft 463 kts 356°
2026-05-05 17:33 29.54118 -13.67267 25324 ft 468 kts 356°
2026-05-05 17:33 29.57359 -13.66938 25745 ft 472 kts 356°
2026-05-05 17:33 29.60667 -13.66602 26212 ft 475 kts 356°
2026-05-05 17:34 29.63964 -13.66263 26742 ft 477 kts 356°
2026-05-05 17:34 29.67279 -13.65927 27014 ft 483 kts 356°
2026-05-05 17:34 29.70654 -13.65582 27467 ft 486 kts 356°
2026-05-05 17:34 29.74037 -13.65234 27955 ft 488 kts 356°
2026-05-05 17:35 29.77449 -13.64887 28172 ft 496 kts 356°
2026-05-05 17:35 29.80898 -13.64533 28736 ft 495 kts 356°
2026-05-05 17:35 29.84266 -13.64179 29447 ft 490 kts 355°
2026-05-05 17:35 29.87668 -13.63819 30000 ft 489 kts 355°
2026-05-05 17:36 29.91052 -13.63466 30464 ft 489 kts 355°
2026-05-05 17:36 29.94431 -13.63116 30947 ft 488 kts 354°
2026-05-05 17:36 29.97833 -13.62764 31446 ft 487 kts 354°
2026-05-05 17:36 30.01168 -13.62419 32008 ft 483 kts 354°
2026-05-05 17:37 30.04510 -13.62071 32553 ft 480 kts 354°
2026-05-05 17:37 30.06755 -13.61837 32884 ft 478 kts 354°
2026-05-05 17:37 30.11164 -13.61379 33568 ft 474 kts 354°
2026-05-05 17:37 30.14424 -13.61043 33899 ft 475 kts 354°
2026-05-05 17:38 30.17745 -13.60705 34240 ft 475 kts 354°
2026-05-05 17:38 30.21024 -13.60371 34594 ft 474 kts 354°
2026-05-05 17:38 30.24278 -13.60036 35109 ft 470 kts 354°
2026-05-05 17:38 30.27571 -13.59694 35482 ft 469 kts 354°
2026-05-05 17:39 30.30770 -13.59360 35952 ft 465 kts 353°
2026-05-05 17:39 30.37274 -13.58697 36031 ft 474 kts 354°
2026-05-05 17:40 30.43949 -13.58028 36032 ft 485 kts 354°
2026-05-05 17:40 30.47341 -13.57559 36030 ft 497 kts
2026-05-05 17:40 30.50759 -13.56577 36026 ft 513 kts 11°
2026-05-05 17:40 30.54054 -13.54851 36035 ft 527 kts 21°
2026-05-05 17:41 30.57250 -13.52654 36033 ft 532 kts 25°
2026-05-05 17:41 30.63387 -13.47843 36027 ft 535 kts 28°
2026-05-05 17:42 30.69413 -13.42859 36028 ft 534 kts 29°
2026-05-05 17:42 30.75476 -13.37861 36035 ft 532 kts 28°
2026-05-05 17:43 30.81545 -13.32932 36032 ft 533 kts 28°
2026-05-05 17:43 30.87643 -13.28026 36032 ft 534 kts 28°
2026-05-05 17:44 30.93762 -13.23120 36031 ft 536 kts 28°
2026-05-05 17:44 30.99911 -13.18230 36028 ft 535 kts 28°
2026-05-05 17:45 31.06084 -13.13331 36036 ft 532 kts 28°
2026-05-05 17:45 31.12170 -13.08489 36031 ft 528 kts 28°
2026-05-05 17:46 31.18245 -13.03647 36032 ft 526 kts 28°
2026-05-05 17:46 31.24282 -12.98827 36032 ft 529 kts 28°
2026-05-05 17:47 31.30344 -12.93973 36035 ft 520 kts 28°
2026-05-05 17:47 31.36303 -12.89191 36035 ft 521 kts 28°
2026-05-05 17:48 31.42272 -12.84394 36036 ft 517 kts 28°
2026-05-05 17:48 31.48224 -12.79608 36038 ft 517 kts 28°
2026-05-05 17:49 31.54116 -12.74860 36039 ft 514 kts 28°
2026-05-05 17:49 31.60031 -12.70092 36040 ft 515 kts 28°
2026-05-05 17:50 31.65920 -12.65331 36044 ft 511 kts 29°
2026-05-05 17:50 31.71759 -12.60601 36043 ft 510 kts 29°
2026-05-05 17:51 31.77588 -12.55878 36044 ft 509 kts 29°
2026-05-05 17:51 31.83446 -12.51121 36044 ft 507 kts 29°
2026-05-05 17:52 31.89232 -12.46415 36047 ft 504 kts 29°
2026-05-05 17:52 31.95023 -12.41700 36048 ft 505 kts 29°
2026-05-05 17:53 32.00795 -12.36999 36045 ft 507 kts 29°
2026-05-05 17:53 32.06598 -12.32274 36046 ft 502 kts 30°
2026-05-05 17:54 32.12333 -12.27600 36053 ft 502 kts 30°
2026-05-05 17:54 32.18059 -12.22928 35869 ft 499 kts 30°
2026-05-05 17:54 32.20924 -12.20585 36043 ft 500 kts 30°
2026-05-05 17:55 32.23797 -12.18238 36204 ft 505 kts 30°
2026-05-05 17:55 32.26677 -12.15881 35973 ft 496 kts 30°
2026-05-05 17:55 32.29485 -12.13578 36061 ft 499 kts 30°
2026-05-05 17:56 32.35223 -12.08876 36064 ft 504 kts 30°
2026-05-05 17:56 32.40944 -12.04176 36056 ft 498 kts 30°
2026-05-05 17:57 32.46636 -11.99489 36067 ft 500 kts 31°
2026-05-05 17:57 32.52354 -11.94779 36075 ft 498 kts 31°
2026-05-05 17:58 32.58023 -11.90099 36074 ft 495 kts 31°
2026-05-05 17:58 32.63672 -11.85428 36072 ft 493 kts 31°
2026-05-05 17:59 32.69296 -11.80770 36084 ft 492 kts 31°
2026-05-05 17:59 32.74902 -11.76123 36076 ft 494 kts 31°
2026-05-05 18:00 32.80516 -11.71463 36066 ft 492 kts 31°
2026-05-05 18:00 32.86103 -11.66815 36077 ft 487 kts 31°
2026-05-05 18:01 32.91647 -11.62197 36067 ft 487 kts 31°
2026-05-05 18:01 32.97176 -11.57581 36065 ft 487 kts 32°
2026-05-05 18:02 33.02732 -11.52937 36065 ft 486 kts 32°
2026-05-05 18:02 33.08277 -11.48296 36060 ft 486 kts 32°
2026-05-05 18:03 33.13779 -11.43685 36069 ft 486 kts 32°
2026-05-05 18:03 33.19302 -11.39045 36069 ft 485 kts 32°
2026-05-05 18:04 33.24859 -11.34346 36075 ft 488 kts 33°
2026-05-05 18:04 33.30346 -11.29683 36078 ft 485 kts 32°
2026-05-05 18:05 33.35845 -11.25001 36072 ft 486 kts 33°
2026-05-05 18:05 33.41344 -11.20316 36074 ft 483 kts 33°
2026-05-05 18:06 33.46807 -11.15656 36078 ft 484 kts 32°
2026-05-05 18:06 33.52317 -11.10952 36074 ft 484 kts 33°
2026-05-05 18:07 33.57759 -11.06300 36071 ft 483 kts 33°
2026-05-05 18:07 33.63226 -11.01620 36063 ft 480 kts 33°
2026-05-05 18:08 33.68637 -10.96980 36064 ft 478 kts 33°
2026-05-05 18:08 33.74052 -10.92328 36063 ft 479 kts 33°
2026-05-05 18:09 33.79493 -10.87646 36063 ft 478 kts 33°
2026-05-05 18:09 33.84882 -10.83000 36064 ft 479 kts 33°
2026-05-05 18:10 33.90307 -10.78317 36067 ft 479 kts 33°
2026-05-05 18:10 33.95695 -10.73657 36069 ft 478 kts 33°
2026-05-05 18:11 34.01116 -10.68962 36065 ft 479 kts 33°
2026-05-05 18:11 34.06531 -10.64262 36064 ft 478 kts 33°
2026-05-05 18:12 34.11927 -10.59571 36066 ft 478 kts 33°
2026-05-05 18:12 34.17296 -10.54897 36063 ft 477 kts 33°
2026-05-05 18:13 34.22689 -10.50194 36064 ft 479 kts 33°
2026-05-05 18:13 34.28088 -10.45479 36064 ft 479 kts 33°
2026-05-05 18:14 34.33467 -10.40775 36066 ft 479 kts 33°
2026-05-05 18:14 34.38856 -10.36052 36066 ft 480 kts 33°
2026-05-05 18:15 34.44274 -10.31298 36064 ft 480 kts 34°
2026-05-05 18:15 34.49670 -10.26555 36067 ft 481 kts 34°
2026-05-05 18:16 34.55088 -10.21786 36065 ft 481 kts 34°
2026-05-05 18:16 34.60496 -10.17016 36065 ft 480 kts 34°
2026-05-05 18:17 34.65876 -10.12273 36069 ft 480 kts 34°
2026-05-05 18:17 34.71288 -10.07517 36068 ft 481 kts 34°
2026-05-05 18:18 34.76697 -10.02761 36063 ft 480 kts 33°
2026-05-05 18:18 34.82145 -9.97961 36065 ft 482 kts 33°
2026-05-05 18:19 34.87552 -9.93189 36068 ft 481 kts 33°
2026-05-05 18:19 34.92964 -9.88401 36072 ft 480 kts 33°
2026-05-05 18:20 34.98375 -9.83606 36074 ft 482 kts 33°
2026-05-05 18:20 35.03803 -9.78787 36069 ft 481 kts 33°
2026-05-05 18:21 35.09218 -9.73971 36073 ft 482 kts 33°
2026-05-05 18:21 35.14630 -9.69148 36075 ft 483 kts 33°
2026-05-05 18:22 35.20041 -9.64316 36073 ft 483 kts 33°
2026-05-05 18:22 35.25426 -9.59501 36074 ft 482 kts 33°
2026-05-05 18:23 35.30860 -9.54636 36074 ft 483 kts 33°
2026-05-05 18:23 35.36281 -9.49774 36076 ft 483 kts 33°
2026-05-05 18:24 35.41691 -9.44914 36077 ft 484 kts 33°
2026-05-05 18:24 35.47095 -9.40053 36074 ft 485 kts 33°
2026-05-05 18:25 35.52539 -9.35146 36075 ft 485 kts 33°
2026-05-05 18:25 35.57979 -9.30233 36075 ft 486 kts 34°
2026-05-05 18:26 35.63415 -9.25315 36073 ft 486 kts 34°
2026-05-05 18:26 35.68854 -9.20389 36074 ft 487 kts 34°
2026-05-05 18:27 35.74308 -9.15440 36073 ft 486 kts 34°
2026-05-05 18:27 35.79686 -9.10362 36073 ft 488 kts 39°
2026-05-05 18:28 35.86712 -9.01279 36072 ft 490 kts 47°
2026-05-05 18:28 35.91160 -8.94959 36070 ft 491 kts 47°
2026-05-05 18:29 35.95689 -8.88590 36067 ft 492 kts 46°
2026-05-05 18:29 36.00249 -8.82277 36065 ft 493 kts 46°
2026-05-05 18:30 36.04823 -8.76002 36066 ft 493 kts 46°
2026-05-05 18:30 36.09428 -8.69704 36060 ft 493 kts 45°
2026-05-05 18:31 36.14045 -8.63392 36064 ft 493 kts 45°
2026-05-05 18:31 36.18642 -8.57098 36057 ft 494 kts 45°
2026-05-05 18:32 36.23242 -8.50786 36056 ft 493 kts 45°
2026-05-05 18:32 36.27822 -8.44487 36048 ft 494 kts 45°
2026-05-05 18:33 36.32427 -8.38139 36041 ft 495 kts 45°
2026-05-05 18:33 36.37014 -8.31805 36027 ft 495 kts 46°
2026-05-05 18:34 36.41637 -8.25408 36034 ft 495 kts 46°
2026-05-05 18:34 36.46222 -8.19054 36028 ft 495 kts 46°
2026-05-05 18:35 36.50824 -8.12665 36007 ft 495 kts 46°
2026-05-05 18:35 36.55408 -8.06291 36009 ft 495 kts 46°
2026-05-05 18:36 36.59971 -7.99931 36008 ft 496 kts 46°
2026-05-05 18:36 36.64566 -7.93510 35992 ft 496 kts 46°
2026-05-05 18:37 36.69131 -7.87125 35987 ft 496 kts 46°
2026-05-05 18:37 36.73719 -7.80693 35984 ft 496 kts 46°
2026-05-05 18:38 36.78287 -7.74273 35993 ft 496 kts 46°
2026-05-05 18:38 36.82893 -7.67790 35991 ft 496 kts 45°
2026-05-05 18:39 36.87465 -7.61341 35983 ft 498 kts 46°
2026-05-05 18:39 36.92034 -7.54880 35983 ft 498 kts 45°
2026-05-05 18:40 36.96577 -7.48447 35984 ft 497 kts 45°
2026-05-05 18:40 37.01163 -7.41939 35979 ft 497 kts 45°
2026-05-05 18:41 37.05717 -7.35436 35974 ft 498 kts 46°
2026-05-05 18:41 37.10196 -7.28819 35977 ft 499 kts 47°
2026-05-05 18:42 37.14677 -7.22093 35975 ft 500 kts 48°
2026-05-05 18:42 37.19107 -7.15432 35973 ft 499 kts 47°
2026-05-05 18:43 37.23586 -7.08711 35965 ft 501 kts 47°
2026-05-05 18:43 37.28062 -7.01995 35966 ft 501 kts 47°
2026-05-05 18:44 37.32533 -6.95279 35967 ft 501 kts 47°
2026-05-05 18:44 37.36992 -6.88569 35971 ft 503 kts 47°
2026-05-05 18:45 37.41457 -6.81839 35973 ft 503 kts 47°
2026-05-05 18:45 37.45931 -6.75083 35976 ft 503 kts 47°
2026-05-05 18:46 37.50397 -6.68321 35981 ft 503 kts 47°
2026-05-05 18:46 37.54867 -6.61541 35984 ft 504 kts 47°
2026-05-05 18:47 37.59335 -6.54752 35986 ft 505 kts 47°
2026-05-05 18:47 37.63805 -6.47943 35987 ft 506 kts 47°
2026-05-05 18:48 37.68276 -6.41119 35987 ft 506 kts 47°
2026-05-05 18:48 37.72751 -6.34275 35985 ft 506 kts 48°
2026-05-05 18:49 37.75561 -6.29969 35986 ft 507 kts 47°